Location: Newark
(3.3223°N, 76.2348°W)
Time: 21:02:22
(UTC+00:00)

BEESAT 2 - Pass Details

Date: 24 January 2020
Orbit: 493 x 534 km, 64.9° (Epoch: 26 February)

Event Time Altitude Azimuth Distance (km) Brightness Sun altitude
Rises 00:43:35 0° 206° (SSW) 2,585 ? -21.6°
Reaches altitude 10° 00:45:44 10° 209° (SSW) 1,706 ? -22.1°
Maximum altitude 00:49:31 67° 291° (WNW) 551 ? -22.9°
Enters shadow 00:49:44 65° 316° (NW) 559 ? -23.0°
